Radiation Dose at Monitoring Post of Fukushima Daini Nuclear Power Station
Date,Time,MP-1(microSv/h),MP-2(microSv/h),MP-3(microSv/h),MP-4(microSv/h),MP-5(microSv/h),MP-6(microSv/h),MP-7(microSv/h),Wind Direction,Wind Velocity(m/s),Rain
2022/11/27,00:00,0.151,0.136,0.214,0.210,0.213,0.120,0.077,northwest,5.2,No
2022/11/27,00:10,0.152,0.138,0.215,0.210,0.210,0.119,0.077,northwest,5.6,No
2022/11/27,00:20,0.152,0.137,0.215,0.210,0.213,0.121,0.077,northwest,6.3,No
2022/11/27,00:30,0.152,0.137,0.215,0.210,0.211,0.120,0.077,northwest,6.2,No
2022/11/27,00:40,0.152,0.137,0.213,0.210,0.212,0.120,0.077,west-northwest,5.3,No
2022/11/27,00:50,0.151,0.136,0.215,0.211,0.213,0.120,0.077,northwest,5.1,No
2022/11/27,01:00,0.152,0.138,0.215,0.211,0.212,0.120,0.077,north-northwest,5.0,No
2022/11/27,01:10,0.152,0.137,0.215,0.209,0.214,0.120,0.078,north,4.8,No
2022/11/27,01:20,0.153,0.137,0.214,0.211,0.211,0.121,0.077,north-northwest,4.4,No
2022/11/27,01:30,0.151,0.137,0.215,0.210,0.214,0.121,0.077,north-northwest,4.8,No
2022/11/27,01:40,0.151,0.137,0.215,0.211,0.211,0.121,0.077,north,6.0,No
2022/11/27,01:50,0.153,0.138,0.213,0.212,0.212,0.121,0.076,north,6.3,No
2022/11/27,02:00,0.152,0.137,0.215,0.211,0.212,0.122,0.076,north,6.0,No
2022/11/27,02:10,0.152,0.137,0.215,0.211,0.213,0.121,0.077,north,4.7,No
2022/11/27,02:20,0.151,0.137,0.214,0.210,0.214,0.121,0.077,north-northwest,4.7,No
2022/11/27,02:30,0.151,0.137,0.215,0.210,0.211,0.120,0.077,north-northwest,3.8,No
2022/11/27,02:40,0.153,0.137,0.216,0.211,0.213,0.121,0.077,north-northwest,4.2,No
2022/11/27,02:50,0.151,0.137,0.215,0.211,0.214,0.121,0.076,north,5.0,No
2022/11/27,03:00,0.153,0.138,0.214,0.210,0.212,0.121,0.077,north,5.1,No
2022/11/27,03:10,0.152,0.138,0.214,0.212,0.213,0.120,0.077,north-northwest,4.8,No
2022/11/27,03:20,0.152,0.138,0.215,0.211,0.212,0.120,0.077,north,3.8,No
2022/11/27,03:30,0.152,0.136,0.214,0.211,0.212,0.121,0.077,north-northwest,3.0,No
2022/11/27,03:40,0.152,0.137,0.215,0.212,0.213,0.120,0.077,north-northwest,4.7,No
2022/11/27,03:50,0.152,0.138,0.214,0.210,0.212,0.121,0.077,north,3.7,No
2022/11/27,04:00,0.153,0.138,0.214,0.211,0.213,0.122,0.078,north-northeast,3.4,No
2022/11/27,04:10,0.152,0.137,0.214,0.212,0.213,0.121,0.077,north,3.2,No
2022/11/27,04:20,0.152,0.137,0.215,0.211,0.213,0.120,0.077,west,0.9,No
2022/11/27,04:30,0.153,0.138,0.215,0.210,0.213,0.121,0.076,north,0.6,No
2022/11/27,04:40,0.152,0.137,0.215,0.211,0.212,0.120,0.077,-,CALM,No
2022/11/27,04:50,0.153,0.138,0.216,0.211,0.211,0.121,0.077,north-northwest,2.7,No
2022/11/27,05:00,0.152,0.137,0.215,0.211,0.213,0.120,0.077,northwest,3.7,No
2022/11/27,05:10,0.152,0.138,0.214,0.212,0.212,0.121,0.077,northwest,5.0,No
2022/11/27,05:20,0.152,0.138,0.215,0.211,0.213,0.121,0.077,northwest,3.5,No
2022/11/27,05:30,0.152,0.137,0.215,0.210,0.213,0.121,0.078,north-northwest,2.2,No
2022/11/27,05:40,0.152,0.137,0.215,0.211,0.212,0.121,0.077,north,3.0,No
2022/11/27,05:50,0.152,0.138,0.215,0.212,0.212,0.120,0.077,north-northwest,3.2,No
2022/11/27,06:00,0.153,0.137,0.214,0.212,0.212,0.120,0.077,north-northwest,4.3,No
2022/11/27,06:10,0.152,0.137,0.215,0.211,0.213,0.121,0.077,north,3.9,No
2022/11/27,06:20,0.152,0.138,0.215,0.213,0.213,0.120,0.078,north,2.7,No
2022/11/27,06:30,0.152,0.137,0.215,0.211,0.212,0.120,0.078,north-northwest,3.2,No
2022/11/27,06:40,0.153,0.137,0.216,0.211,0.212,0.121,0.077,north-northeast,4.3,No
2022/11/27,06:50,0.153,0.138,0.216,0.211,0.212,0.121,0.077,north,4.6,No
2022/11/27,07:00,0.152,0.136,0.216,0.213,0.212,0.121,0.078,north,4.8,No
2022/11/27,07:10,0.152,0.137,0.215,0.211,0.213,0.121,0.077,north-northwest,3.7,No
2022/11/27,07:20,0.153,0.138,0.215,0.212,0.211,0.121,0.078,north-northwest,2.8,No
2022/11/27,07:30,0.152,0.137,0.216,0.211,0.212,0.120,0.076,north-northwest,2.6,No
2022/11/27,07:40,0.152,0.138,0.215,0.212,0.212,0.120,0.078,north,4.6,No
2022/11/27,07:50,0.152,0.138,0.216,0.211,0.214,0.122,0.077,north,3.3,No
2022/11/27,08:00,0.153,0.138,0.215,0.211,0.212,0.121,0.078,north,4.2,No
2022/11/27,08:10,0.151,0.137,0.216,0.210,0.213,0.122,0.078,north,4.2,No
2022/11/27,08:20,0.153,0.138,0.215,0.211,0.214,0.121,0.078,north-northwest,4.1,No
2022/11/27,08:30,0.152,0.138,0.216,0.210,0.212,0.120,0.079,north-northwest,3.6,No
2022/11/27,08:40,0.153,0.138,0.215,0.210,0.213,0.121,0.077,north,3.9,No
2022/11/27,08:50,0.153,0.138,0.215,0.212,0.213,0.121,0.078,north-northeast,4.1,No
2022/11/27,09:00,0.153,0.137,0.216,0.211,0.212,0.121,0.077,north,3.7,No
2022/11/27,09:10,0.153,0.137,0.216,0.211,0.214,0.120,0.078,north-northeast,3.5,No
2022/11/27,09:20,0.154,0.138,0.216,0.211,0.213,0.121,0.078,north,3.4,No
2022/11/27,09:30,0.152,0.138,0.216,0.211,0.215,0.121,0.077,north,2.6,No
2022/11/27,09:40,0.153,0.137,0.216,0.212,0.213,0.121,0.078,north,2.8,No
2022/11/27,09:50,0.153,0.138,0.215,0.210,0.213,0.121,0.078,northeast,3.2,No
2022/11/27,10:00,0.152,0.138,0.217,0.213,0.211,0.121,0.079,northeast,3.7,No
2022/11/27,10:10,0.152,0.138,0.214,0.210,0.213,0.121,0.077,northeast,2.9,No
2022/11/27,10:20,0.153,0.138,0.216,0.212,0.211,0.121,0.078,northeast,2.3,No
2022/11/27,10:30,0.152,0.138,0.213,0.212,0.213,0.121,0.077,northeast,1.7,No
2022/11/27,10:40,0.153,0.137,0.214,0.213,0.212,0.121,0.078,northeast,2.8,No
2022/11/27,10:50,0.151,0.138,0.215,0.210,0.212,0.122,0.078,northeast,3.2,No
2022/11/27,11:00,0.153,0.137,0.216,0.212,0.214,0.121,0.079,northeast,3.0,No
2022/11/27,11:10,0.152,0.139,0.214,0.211,0.211,0.122,0.078,northeast,3.0,No
2022/11/27,11:20,0.153,0.137,0.215,0.212,0.212,0.121,0.078,northeast,2.5,No
2022/11/27,11:30,0.153,0.138,0.215,0.210,0.214,0.122,0.078,north-northeast,4.0,No
2022/11/27,11:40,0.152,0.138,0.215,0.213,0.211,0.121,0.078,northeast,3.0,No
2022/11/27,11:50,0.153,0.138,0.215,0.211,0.214,0.121,0.078,northeast,4.0,No
2022/11/27,12:00,0.152,0.136,0.215,0.213,0.214,0.122,0.078,northeast,3.0,No
2022/11/27,12:10,0.153,0.138,0.216,0.212,0.212,0.122,0.078,northeast,2.6,No
2022/11/27,12:20,0.152,0.137,0.216,0.211,0.215,0.121,0.078,northeast,3.6,No
2022/11/27,12:30,0.153,0.138,0.216,0.213,0.212,0.122,0.079,northeast,2.7,No
2022/11/27,12:40,0.152,0.137,0.216,0.212,0.214,0.122,0.078,east-northeast,2.8,No
2022/11/27,12:50,0.154,0.139,0.217,0.213,0.213,0.122,0.079,east,1.2,No
2022/11/27,13:00,0.153,0.138,0.216,0.211,0.214,0.121,0.078,east-northeast,1.8,No
2022/11/27,13:10,0.152,0.137,0.218,0.213,0.214,0.122,0.078,east-southeast,1.6,No
2022/11/27,13:20,0.154,0.137,0.216,0.210,0.214,0.122,0.079,south-southeast,0.6,No
2022/11/27,13:30,0.151,0.138,0.216,0.213,0.213,0.121,0.077,southwest,1.7,No
2022/11/27,13:40,0.152,0.138,0.215,0.212,0.214,0.122,0.078,west-southwest,3.1,No
2022/11/27,13:50,0.154,0.138,0.215,0.212,0.212,0.122,0.078,west-southwest,4.1,No
2022/11/27,14:00,0.152,0.138,0.215,0.212,0.211,0.122,0.078,west,4.6,No
2022/11/27,14:10,0.153,0.137,0.217,0.210,0.213,0.121,0.078,west-northwest,4.5,No
2022/11/27,14:20,0.153,0.138,0.216,0.212,0.212,0.122,0.078,west,3.9,No
2022/11/27,14:30,0.153,0.137,0.217,0.210,0.214,0.122,0.079,west,4.8,No
2022/11/27,14:40,0.154,0.138,0.215,0.212,0.213,0.122,0.078,west,3.8,No
2022/11/27,14:50,0.152,0.138,0.217,0.212,0.214,0.122,0.078,west,4.0,No
2022/11/27,15:00,0.154,0.138,0.217,0.213,0.213,0.121,0.078,west,4.7,No
2022/11/27,15:10,0.153,0.139,0.216,0.212,0.216,0.122,0.077,west,6.3,No
2022/11/27,15:20,0.154,0.137,0.216,0.214,0.213,0.121,0.078,west,7.3,No
2022/11/27,15:30,0.152,0.138,0.217,0.212,0.215,0.121,0.077,west,5.2,No
2022/11/27,15:40,0.152,0.137,0.216,0.213,0.213,0.122,0.077,west,5.9,No
2022/11/27,15:50,0.153,0.138,0.216,0.213,0.215,0.121,0.078,west,6.8,No
2022/11/27,16:00,0.152,0.138,0.217,0.212,0.215,0.122,0.078,west,8.6,No
2022/11/27,16:10,0.153,0.137,0.217,0.213,0.213,0.121,0.079,west-northwest,6.8,No
2022/11/27,16:20,0.153,0.139,0.217,0.213,0.215,0.121,0.078,west,8.3,No
2022/11/27,16:30,0.153,0.138,0.217,0.212,0.214,0.122,0.078,west-northwest,7.9,No
2022/11/27,16:40,0.154,0.137,0.217,0.213,0.213,0.123,0.077,west-northwest,7.7,No
2022/11/27,16:50,0.154,0.139,0.217,0.213,0.215,0.122,0.078,west,6.3,No
2022/11/27,17:00,0.153,0.139,0.216,0.212,0.212,0.122,0.078,west-northwest,6.4,No
2022/11/27,17:10,0.152,0.139,0.218,0.214,0.213,0.122,0.077,west-northwest,8.5,No
2022/11/27,17:20,0.153,0.138,0.217,0.213,0.214,0.122,0.077,west,9.2,No
2022/11/27,17:30,0.153,0.137,0.215,0.213,0.213,0.122,0.077,west-northwest,9.3,No
2022/11/27,17:40,0.154,0.137,0.216,0.212,0.214,0.121,0.078,west,9.2,No
2022/11/27,17:50,0.153,0.138,0.217,0.213,0.213,0.123,0.078,west,9.5,No
2022/11/27,18:00,0.153,0.138,0.216,0.212,0.212,0.122,0.079,west-northwest,8.1,No
2022/11/27,18:10,0.153,0.138,0.216,0.212,0.214,0.122,0.078,west-northwest,8.4,No
2022/11/27,18:20,0.153,0.138,0.216,0.212,0.213,0.122,0.078,west-northwest,5.9,No
2022/11/27,18:30,0.154,0.138,0.217,0.213,0.213,0.122,0.078,west-northwest,5.8,No
2022/11/27,18:40,0.153,0.138,0.216,0.212,0.213,0.122,0.078,west-northwest,4.9,No
2022/11/27,18:50,0.154,0.139,0.216,0.213,0.214,0.122,0.078,northwest,2.6,No
2022/11/27,19:00,0.153,0.139,0.216,0.213,0.213,0.121,0.078,northwest,3.6,No
2022/11/27,19:10,0.154,0.138,0.218,0.212,0.213,0.122,0.077,north-northwest,2.4,No
2022/11/27,19:20,0.154,0.139,0.216,0.211,0.214,0.121,0.078,northwest,2.0,No
2022/11/27,19:30,0.153,0.138,0.216,0.212,0.214,0.122,0.077,west-northwest,2.6,No
2022/11/27,19:40,0.153,0.138,0.216,0.213,0.213,0.121,0.078,west-northwest,3.3,No
2022/11/27,19:50,0.153,0.138,0.217,0.212,0.214,0.121,0.078,northwest,2.4,No
2022/11/27,20:00,0.153,0.138,0.217,0.213,0.213,0.122,0.078,northwest,3.8,No
2022/11/27,20:10,0.152,0.138,0.217,0.213,0.212,0.122,0.078,northwest,3.7,No
2022/11/27,20:20,0.153,0.138,0.216,0.212,0.213,0.122,0.077,northwest,5.9,No
2022/11/27,20:30,0.154,0.137,0.215,0.212,0.212,0.122,0.078,northwest,5.3,No
2022/11/27,20:40,0.153,0.138,0.217,0.212,0.213,0.121,0.078,northwest,5.0,No
2022/11/27,20:50,0.154,0.138,0.217,0.213,0.213,0.122,0.078,northwest,4.7,No
2022/11/27,21:00,0.153,0.137,0.217,0.214,0.213,0.121,0.077,northwest,4.2,No
2022/11/27,21:10,0.152,0.137,0.216,0.212,0.213,0.121,0.078,north-northwest,3.5,No
2022/11/27,21:20,0.152,0.139,0.217,0.213,0.213,0.122,0.078,northwest,5.2,No
2022/11/27,21:30,0.153,0.138,0.216,0.212,0.212,0.122,0.078,northwest,5.7,No
2022/11/27,21:40,0.154,0.138,0.217,0.213,0.213,0.122,0.078,northwest,5.9,No
2022/11/27,21:50,0.153,0.138,0.217,0.211,0.213,0.122,0.078,north-northwest,5.9,No
2022/11/27,22:00,0.154,0.138,0.216,0.213,0.214,0.122,0.077,north-northwest,5.6,No
2022/11/27,22:10,0.154,0.138,0.216,0.213,0.212,0.122,0.078,north-northwest,6.2,No
2022/11/27,22:20,0.153,0.139,0.217,0.213,0.213,0.122,0.078,north-northwest,7.5,No
2022/11/27,22:30,0.154,0.138,0.216,0.212,0.215,0.122,0.078,north-northwest,7.0,No
2022/11/27,22:40,0.154,0.139,0.217,0.212,0.213,0.121,0.077,northwest,4.6,No
2022/11/27,22:50,0.154,0.139,0.217,0.212,0.213,0.122,0.078,west,0.9,No
2022/11/27,23:00,0.154,0.138,0.216,0.212,0.213,0.122,0.078,northwest,1.5,No
2022/11/27,23:10,0.154,0.139,0.217,0.213,0.214,0.122,0.078,northeast,1.5,No
2022/11/27,23:20,0.153,0.138,0.217,0.214,0.213,0.122,0.079,north,3.5,No
2022/11/27,23:30,0.154,0.137,0.217,0.213,0.213,0.121,0.078,north,4.7,No
2022/11/27,23:40,0.153,0.139,0.216,0.212,0.213,0.121,0.078,north,4.5,No
2022/11/27,23:50,0.153,0.139,0.216,0.213,0.214,0.123,0.078,north-northwest,4.4,No
